GW4332 Weather Reports


time (UTC)temp
C
wind
direction
speed
KPH
gust
KPH
rain 1hr
cm
rain 24hr
cm
rain mn
cm
humidity
%
barometer
mb
20260508044030 8 199 3.2 14.5 0.00 0.00 0.00 85 1018.1
20260508043029 8 108 0.0 14.5 0.00 0.00 0.00 84 1018.0
20260508042030 8 74 1.6 14.5 0.00 0.00 0.00 84 1018.0
20260508041030 8 183 0.0 14.5 0.00 0.00 0.00 84 1017.9
20260508040030 8 91 1.6 11.3 0.00 0.00 0.00 84 1017.9
20260508035030 8 91 1.6 12.9 0.00 0.00 0.00 83 1018.0
20260508034029 9 99 3.2 14.5 0.00 0.00 0.00 83 1018.0
20260508033030 9 71 1.6 11.3 0.00 0.00 0.00 83 1017.9
20260508032030 9 102 3.2 11.3 0.00 0.00 0.00 82 1017.9
20260508031030 9 107 1.6 12.9 0.00 0.00 0.00 82 1017.8
20260508030030 9 130 0.0 16.1 0.00 0.00 0.00 82 1017.8
20260508025030 9 356 0.0 12.9 0.00 0.00 0.00 82 1017.8
20260508024029 9 120 1.6 14.5 0.00 0.00 0.00 81 1017.8
20260508023030 9 86 3.2 17.7 0.00 0.00 0.00 81 1017.8
20260508022029 9 136 1.6 16.1 0.00 0.00 0.00 81 1017.8
20260508021029 9 115 3.2 19.3 0.00 0.00 0.00 81 1017.8
20260508020030 10 106 3.2 17.7 0.00 0.00 0.00 80 1017.6
20260508015029 10 124 3.2 16.1 0.00 0.00 0.00 80 1017.7
20260508014030 10 142 3.2 16.1 0.00 0.00 0.00 79 1017.8
20260508013030 10 136 3.2 17.7 0.00 0.00 0.00 79 1017.8
20260508012030 10 144 1.6 22.5 0.00 0.00 0.00 79 1017.8
20260508011029 10 120 3.2 19.3 0.00 0.00 0.00 78 1017.9
20260508010030 10 115 4.8 17.7 0.00 0.00 0.00 78 1018.0
20260508005030 10 120 3.2 19.3 0.00 0.00 0.00 78 1018.0
20260508004030 10 143 3.2 14.5 0.00 0.00 0.00 78 1017.8
20260508003029 10 127 3.2 14.5 0.00 0.00 0.00 77 1017.9
20260508002030 10 102 3.2 12.9 0.00 0.00 0.00 77 1017.9
20260508001029 10 123 3.2 14.5 0.00 0.00 0.00 76 1017.9
20260508000030 10 117 3.2 16.1 0.00 0.00 0.00 75 1017.8
20260507235030 10 129 1.6 14.5 0.00 0.00 0.00 75 1017.9
20260507234029 10 123 1.6 11.3 0.00 0.00 0.00 74 1017.9
20260507233030 10 105 1.6 14.5 0.00 0.00 0.00 74 1017.9
20260507232029 11 88 3.2 16.1 0.00 0.00 0.00 73 1017.9
20260507231030 11 136 3.2 16.1 0.00 0.00 0.00 73 1017.9
20260507230030 11 267 1.6 20.9 0.00 0.00 0.00 72 1017.9
20260507225029 11 95 3.2 19.3 0.00 0.00 0.00 71 1017.9
20260507224030 11 139 3.2 19.3 0.00 0.00 0.00 71 1017.8
20260507223029 11 135 3.2 19.3 0.00 0.00 0.00 70 1017.9
20260507222030 12 89 6.4 20.9 0.00 0.00 0.00 69 1017.9
20260507221030 12 126 3.2 20.9 0.00 0.00 0.00 69 1017.8
20260507220029 12 93 9.7 20.9 0.00 0.00 0.00 69 1017.8
20260507215030 12 110 4.8 17.7 0.00 0.00 0.00 68 1017.8
20260507214029 12 107 6.4 16.1 0.00 0.00 0.00 68 1017.8
20260507213030 12 183 1.6 16.1 0.00 0.00 0.00 68 1017.8
20260507212030 12 132 4.8 19.3 0.00 0.00 0.00 68 1017.7
20260507211030 13 132 4.8 20.9 0.00 0.00 0.00 69 1017.7
20260507210029 13 124 3.2 20.9 0.00 0.00 0.00 70 1017.7
20260507205030 13 101 8.0 17.7 0.00 0.00 0.00 70 1017.7
20260507204029 12 107 8.0 16.1 0.00 0.00 0.00 70 1017.6
20260507203030 12 87 8.0 14.5 0.00 0.00 0.00 69 1017.5
20260507202029 12 80 9.7 16.1 0.00 0.00 0.00 69 1017.5
20260507201030 13 78 8.0 14.5 0.00 0.00 0.00 69 1017.2
20260507200029 13 69 8.0 19.3 0.00 0.00 0.00 68 1017.1
20260507195030 13 59 8.0 16.1 0.00 0.00 0.00 68 1017.1
20260507194029 13 66 8.0 14.5 0.00 0.00 0.00 67 1017.0
20260507193030 13 52 9.7 16.1 0.00 0.00 0.00 66 1016.9
20260507192030 13 45 9.7 17.7 0.00 0.00 0.00 66 1016.8
20260507191029 13 37 12.9 19.3 0.00 0.00 0.00 64 1016.8
20260507190029 13 45 12.9 19.3 0.00 0.00 0.00 62 1016.7
20260507185030 14 38 12.9 19.3 0.00 0.00 0.00 61 1016.6
20260507184030 14 43 12.9 19.3 0.00 0.00 0.00 61 1016.5
20260507183029 14 47 12.9 22.5 0.00 0.00 0.00 62 1016.4
20260507182030 14 36 9.7 17.7 0.00 0.00 0.00 66 1016.4
20260507181029 14 33 12.9 24.1 0.00 0.00 0.00 65 1016.3
20260507180030 14 38 9.7 20.9 0.00 0.00 0.00 65 1016.3
20260507175029 15 23 9.7 19.3 0.00 0.00 0.00 62 1016.3
20260507174030 15 28 12.9 22.5 0.00 0.00 0.00 60 1016.3
20260507173030 15 23 11.3 19.3 0.00 0.00 0.00 58 1016.1
20260507172029 15 357 11.3 20.9 0.00 0.00 0.00 59 1016.1
20260507171030 15 20 11.3 17.7 0.00 0.00 0.00 58 1016.3
20260507170029 15 353 14.5 20.9 0.00 0.00 0.00 59 1016.2
20260507165029 15 352 9.7 16.1 0.00 0.00 0.00 57 1016.1
20260507164030 15 344 12.9 17.7 0.00 0.00 0.00 57 1016.1
20260507163030 15 336 11.3 16.1 0.00 0.00 0.00 57 1016.1
20260507162029 15 349 11.3 17.7 0.00 0.00 0.00 57 1016.1
20260507161030 15 15 11.3 19.3 0.00 0.00 0.00 57 1016.0
20260507160029 15 352 9.7 19.3 0.00 0.00 0.00 57 1016.0
20260507155030 15 356 9.7 17.7 0.00 0.00 0.00 56 1016.0
20260507154030 15 348 12.9 20.9 0.00 0.00 0.00 58 1016.1
20260507153030 15 340 14.5 19.3 0.00 0.00 0.00 57 1016.1
20260507152029 15 343 14.5 19.3 0.00 0.00 0.00 57 1016.1
20260507151030 15 335 14.5 20.9 0.00 0.00 0.00 61 1016.0
20260507150030 15 327 17.7 24.1 0.00 0.00 0.00 58 1016.1
20260507145029 15 336 17.7 24.1 0.00 0.00 0.00 64 1016.0
20260507144030 15 327 17.7 22.5 0.00 0.00 0.00 66 1016.1
20260507143029 15 325 19.3 24.1 0.00 0.00 0.00 69 1016.2
20260507142030 15 323 19.3 22.5 0.00 0.00 0.00 68 1016.0
20260507141029 15 324 20.9 24.1 0.00 0.00 0.00 69 1016.1
20260507140030 15 320 20.9 25.7 0.00 0.00 0.00 70 1016.1
20260507135029 15 327 20.9 25.7 0.00 0.00 0.00 71 1016.1
20260507134030 15 324 20.9 25.7 0.00 0.00 0.00 72 1016.1
20260507133030 14 325 20.9 25.7 0.00 0.00 0.00 73 1016.2
20260507132030 14 318 19.3 24.1 0.00 0.00 0.00 73 1016.1
20260507131030 14 327 19.3 25.7 0.00 0.00 0.00 73 1016.0
20260507130030 14 320 19.3 24.1 0.00 0.00 0.00 74 1016.1
20260507125030 14 319 19.3 24.1 0.00 0.00 0.00 73 1016.1
20260507124030 13 317 20.9 25.7 0.00 0.00 0.00 74 1016.1
20260507123030 13 323 20.9 25.7 0.00 0.00 0.00 74 1016.2
20260507122029 13 322 20.9 24.1 0.00 0.00 0.00 75 1016.1
20260507121030 13 323 20.9 25.7 0.00 0.00 0.00 75 1016.1
20260507120030 13 323 19.3 22.5 0.00 0.00 0.00 74 1016.1
20260507115030 13 322 17.7 22.5 0.00 0.00 0.00 75 1016.1
20260507114029 12 329 17.7 24.1 0.00 0.00 0.00 75 1016.1
20260507113030 12 323 17.7 22.5 0.00 0.00 0.00 75 1016.1
20260507112029 12 324 19.3 22.5 0.00 0.00 0.00 76 1016.1
20260507111029 12 321 17.7 22.5 0.00 0.00 0.00 76 1016.1
20260507110030 12 320 17.7 22.5 0.00 0.00 0.00 74 1016.2
20260507105029 12 334 16.1 19.3 0.00 0.00 0.00 72 1016.1
20260507104030 12 339 14.5 19.3 0.00 0.00 0.00 72 1016.2
20260507103030 12 324 14.5 19.3 0.00 0.00 0.00 74 1016.3
20260507102031 11 320 14.5 19.3 0.00 0.00 0.00 75 1016.2
20260507101029 11 328 14.5 19.3 0.00 0.00 0.00 75 1016.1
20260507100030 11 334 14.5 19.3 0.00 0.00 0.00 75 1016.1
20260507095029 11 331 14.5 17.7 0.00 0.00 0.00 76 1016.0
20260507094030 11 337 12.9 19.3 0.00 0.00 0.00 77 1016.0
20260507093030 11 332 11.3 19.3 0.00 0.00 0.00 76 1015.9
20260507092029 10 349 9.7 17.7 0.00 0.00 0.00 77 1015.9
20260507091029 10 348 11.3 20.9 0.00 0.00 0.00 77 1015.9
20260507090030 10 343 11.3 19.3 0.00 0.00 0.00 78 1015.8
20260507085029 10 336 12.9 17.7 0.00 0.00 0.00 78 1015.7
20260507084030 10 347 9.7 16.1 0.00 0.00 0.00 78 1015.7
20260507083030 10 338 11.3 16.1 0.00 0.00 0.00 78 1015.7
20260507082029 10 325 11.3 17.7 0.00 0.00 0.00 78 1015.6
20260507081030 10 332 9.7 16.1 0.00 0.00 0.00 78 1015.6
20260507080030 10 348 8.0 16.1 0.00 0.00 0.00 77 1015.6
20260507075030 10 346 9.7 16.1 0.00 0.00 0.00 76 1015.5
20260507074029 10 21 9.7 16.1 0.00 0.00 0.00 75 1015.4
20260507073030 10 22 8.0 17.7 0.00 0.00 0.00 75 1015.3
20260507072029 10 34 11.3 19.3 0.00 0.00 0.00 75 1015.3
20260507071030 10 31 9.7 17.7 0.00 0.00 0.00 75 1015.2
20260507070030 10 33 9.7 17.7 0.00 0.00 0.00 74 1015.2
20260507065029 10 30 9.7 19.3 0.00 0.00 0.00 74 1015.2
20260507064030 10 22 11.3 20.9 0.00 0.00 0.00 73 1015.1
20260507063029 10 37 11.3 19.3 0.00 0.00 0.00 72 1015.1
20260507062030 10 46 11.3 20.9 0.00 0.00 0.00 71 1015.0
20260507061030 10 37 11.3 20.9 0.00 0.00 0.00 72 1015.0
20260507060029 10 41 11.3 19.3 0.00 0.00 0.00 73 1015.0
20260507055030 10 50 11.3 19.3 0.00 0.00 0.00 74 1014.8
20260507054029 10 49 9.7 19.3 0.00 0.00 0.00 75 1014.8
20260507053030 9 62 4.8 8.0 0.00 0.00 0.00 77 1014.8
20260507052030 9 69 4.8 9.7 0.00 0.00 0.00 78 1014.6
20260507051029 9 50 6.4 11.3 0.00 0.00 0.00 78 1014.6
20260507050030 8 40 9.7 17.7 0.00 0.00 0.00 78 1014.5
20260507045029 8 35 11.3 17.7 0.00 0.00 0.00 79 1014.4